User: anonymous   Login
Location: Unspecified
(0.0000°N, 0.0000°E)
Time: 15:40:27
(UTC+00:00)
Language:

DNEPR OBJECT X - Orbit

View from above orbital plane
View from above orbital plane
View from above satellite
View from above satellite

Ground track
Ground track

The orbit data is extracted from the following two-line orbital elements,

1 39437U 13066X   18108.93755721 +.00032219 +00000-0 +69805-3 0  9997
2 39437 097.7188 229.9670 0007378 112.1213 248.0818 15.44348028242018
Epoch (UTC): 18 April 2018 22:30:04
Eccentricity: 0.0007378
inclination: 97.7188°
perigee height: 428 km
apogee height: 438 km
right ascension of ascending node: 229.9670°
argument of perigee: 112.1213°
revolutions per day: 15.44348028
mean anomaly at epoch: 248.0818°
orbit number at epoch: 24201

The dashed part of the orbit path shows where the satellite is in the earth's shadow,  

DLR